Regional Weather Roundup
Issued by NWS

Home | Current Version | Previous Version | Text Only | Print | Product List | Glossary Off
Versions: 1 2 3 4 5 6 7 8 9 10 11 12 13 14 15 16 17 18 19 20 21 22 23 24 25 26 27 28 29 30 31 32 33 34 35 36 37 38 39 40 41 42 43 44 45 46 47 48 49 50

000
ASUS45 KCYS 241610
RWRWY

WYOMING REGIONAL WEATHER ROUNDUP
NATIONAL WEATHER SERVICE CHEYENNE WY
900 AM MST WED DEC 24 2014

NOTE:  "FAIR" INDICATES FEW OR NO CLOUDS BELOW 12,000 FEET
WITH NO SIGNIFICANT WEATHER AND/OR OBSTRUCTIONS TO VISIBILITY.

WYZ001-241700-
YELLOWSTONE NATIONAL PARK

CITY           SKY/WX    TMP DP  RH WIND       PRES   REMARKS
LK YELLOWSTONE   N/A     17  13  84 CALM      29.91F
W YELLOWSTONE  NOT AVBL

$$
WYZ002>013-054>058-071-098>099-241700-
NORTHERN WYOMING

CITY           SKY/WX    TMP DP  RH WIND       PRES   REMARKS
JACKSON        CLOUDY    16  12  86 CALM      29.97S
CODY           FAIR      36  18  48 W7        29.75S WCI  30
GREYBULL       FAIR      19  14  81 CALM      29.80F
WORLAND        FAIR      12   8  84 CALM      29.79F
SHERIDAN       FAIR      30  21  69 CALM      29.64F
BUFFALO        FAIR      39  23  52 W9        29.65F WCI  33
GILLETTE       FAIR      36  18  48 SW21G29   29.65F WCI  25
HULETT           N/A    N/A N/A N/A MISG        N/A
NEWCASTLE      FAIR      23  19  86 CALM      29.76F

$$
WYZ014>020-022>026-101>103-241700-
CENTRAL WYOMING

CITY           SKY/WX    TMP DP  RH WIND       PRES   REMARKS
BIG PINEY      CLOUDY    10   6  84 NW6       29.98F WCI   0
PINEDALE       CLOUDY    16  12  86 CALM      29.97F
DUBOIS         NOT AVBL
LANDER         FAIR      14   6  70 S5        29.81F WCI   6
RIVERTON       FAIR      14   7  73 CALM      29.81F
CASPER         FAIR      28  15  58 SW24G35   29.80F WCI  14
DOUGLAS        FAIR      34  22  61 NW9       29.76F WCI  27

$$
WYZ021-027>030-104>119-241700-
SOUTHERN WYOMING

CITY           SKY/WX    TMP DP  RH WIND       PRES   REMARKS
EVANSTON       FAIR      18  12  77 SW14      30.00F WCI   4
KEMMERER       CLOUDY    23  16  74 NW7       29.99  WCI  15
FORT BRIDGER   CLOUDY    34  26  73 SW9       30.00F WCI  27
ROCK SPRINGS   CLOUDY    25  14  63 SW14      29.97F WCI  13
DIXON          PTSUNNY    7   2  78 CALM      30.10F
RAWLINS        FAIR      24  11  57 SW9       29.98F WCI  14
SARATOGA       FAIR      19  10  68 SE15G22   29.99F WCI   5
LARAMIE        FAIR      22  11  62 S5        29.88F WCI  16
CHEYENNE       FAIR      32  14  47 W25G35    29.79F WCI  19
TORRINGTON     FAIR      24  16  71 MISG      29.79F
PINE BLUFFS    FAIR      32  18  55 W10       29.83F WCI  24

$$



USA.gov is the U.S. government's official web portal to all federal, state and local government web resources and services.